owner,sensor,date,latitude,longitude,vertical_datum,sea_water_practical_salinity,qcFlag 
TABS,ioos:station:wmo:42049:1,2014-12-16T09:30:00Z,28.3507,-96.0058,2.0,0.0113,11111222 
TABS,ioos:station:wmo:42049:1,2014-12-16T10:00:00Z,28.3507,-96.0058,2.0,0.0112,11111222 
TABS,ioos:station:wmo:42049:1,2014-12-16T10:30:00Z,28.3507,-96.0058,2.0,0.0113,11111222 
TABS,ioos:station:wmo:42049:1,2014-12-16T11:00:00Z,28.3507,-96.0058,2.0,0.0107,11111222 
TABS,ioos:station:wmo:42049:1,2014-12-16T11:30:00Z,28.3507,-96.0058,2.0,0.0107,11111222 
TABS,ioos:station:wmo:42049:1,2014-12-16T12:00:00Z,28.3507,-96.0058,2.0,0.0106,11111222 
TABS,ioos:station:wmo:42049:1,2014-12-16T12:30:00Z,28.3507,-96.0058,2.0,0.0107,11111222 
TABS,ioos:station:wmo:42049:1,2014-12-16T13:00:00Z,28.3507,-96.0058,2.0,0.0108,11111222 
TABS,ioos:station:wmo:42049:1,2014-12-16T13:30:00Z,28.3507,-96.0058,2.0,0.0108,11111222 
TABS,ioos:station:wmo:42049:1,2014-12-16T14:00:00Z,28.3507,-96.0058,2.0,0.01,11111222 
TABS,ioos:station:wmo:42049:1,2014-12-16T14:30:00Z,28.3507,-96.0058,2.0,0.0102,11111222 
TABS,ioos:station:wmo:42049:1,2014-12-16T15:00:00Z,28.3507,-96.0058,2.0,0.0103,11111222 
TABS,ioos:station:wmo:42049:1,2014-12-16T15:30:00Z,28.3507,-96.0058,2.0,0.0102,11111222 
TABS,ioos:station:wmo:42049:1,2014-12-16T16:00:00Z,28.3507,-96.0058,2.0,0.01,11111222 
TABS,ioos:station:wmo:42049:1,2014-12-16T16:30:00Z,28.3507,-96.0058,2.0,0.0102,11111222 
TABS,ioos:station:wmo:42049:1,2014-12-16T17:00:00Z,28.3507,-96.0058,2.0,0.0106,11111222 
TABS,ioos:station:wmo:42049:1,2014-12-16T17:30:00Z,28.3507,-96.0058,2.0,0.0107,11111222 
TABS,ioos:station:wmo:42049:1,2014-12-16T18:00:00Z,28.3507,-96.0058,2.0,0.0107,11111222 
TABS,ioos:station:wmo:42049:1,2014-12-16T18:30:00Z,28.3507,-96.0058,2.0,0.0105,11111222 
TABS,ioos:station:wmo:42049:1,2014-12-16T19:00:00Z,28.3507,-96.0058,2.0,0.0102,11111222 
TABS,ioos:station:wmo:42049:1,2014-12-16T19:30:00Z,28.3507,-96.0058,2.0,0.0102,11111222 
TABS,ioos:station:wmo:42049:1,2014-12-16T20:00:00Z,28.3507,-96.0058,2.0,0.0098,11111222 
TABS,ioos:station:wmo:42049:1,2014-12-16T20:30:00Z,28.3507,-96.0058,2.0,0.0096,11111222 
TABS,ioos:station:wmo:42049:1,2014-12-16T21:00:00Z,28.3507,-96.0058,2.0,0.0094,11111222 
TABS,ioos:station:wmo:42049:1,2014-12-16T21:30:00Z,28.3507,-96.0058,2.0,0.0093,11111222 
TABS,ioos:station:wmo:42049:1,2014-12-16T22:00:00Z,28.3507,-96.0058,2.0,0.0091,11111222 
TABS,ioos:station:wmo:42049:1,2014-12-16T22:30:00Z,28.3507,-96.0058,2.0,0.0091,11111222 
TABS,ioos:station:wmo:42049:1,2014-12-16T23:00:00Z,28.3507,-96.0058,2.0,0.0088,11111222 
TABS,ioos:station:wmo:42049:1,2014-12-16T23:30:00Z,28.3507,-96.0058,2.0,0.0089,11111222 
TABS,ioos:station:wmo:42049:1,2014-12-17T00:00:00Z,28.3507,-96.0058,2.0,0.0089,11111222 
TABS,ioos:station:wmo:42049:1,2014-12-17T00:30:00Z,28.3507,-96.0058,2.0,0.009,11111222 
TABS,ioos:station:wmo:42049:1,2014-12-17T01:00:00Z,28.3507,-96.0058,2.0,0.009,11111222 
TABS,ioos:station:wmo:42049:1,2014-12-17T01:30:00Z,28.3507,-96.0058,2.0,0.0089,11111222 
TABS,ioos:station:wmo:42049:1,2014-12-17T02:00:00Z,28.3507,-96.0058,2.0,0.0089,11111222 
TABS,ioos:station:wmo:42049:1,2014-12-17T02:30:00Z,28.3507,-96.0058,2.0,0.0089,11111222 
TABS,ioos:station:wmo:42049:1,2014-12-17T03:00:00Z,28.3507,-96.0058,2.0,0.0089,11111222 
TABS,ioos:station:wmo:42049:1,2014-12-17T03:30:00Z,28.3507,-96.0058,2.0,0.0089,11111222 
TABS,ioos:station:wmo:42049:1,2014-12-17T04:00:00Z,28.3507,-96.0058,2.0,0.009,11111222 
TABS,ioos:station:wmo:42049:1,2014-12-17T04:30:00Z,28.3507,-96.0058,2.0,0.0091,11111222 
TABS,ioos:station:wmo:42049:1,2014-12-17T05:00:00Z,28.3507,-96.0058,2.0,0.0091,11111222 
TABS,ioos:station:wmo:42049:1,2014-12-17T05:30:00Z,28.3507,-96.0058,2.0,0.009,11111222 
TABS,ioos:station:wmo:42049:1,2014-12-17T06:00:00Z,28.3507,-96.0058,2.0,0.009,11111222 
TABS,ioos:station:wmo:42049:1,2014-12-17T06:30:00Z,28.3507,-96.0058,2.0,0.009,11111222 
TABS,ioos:station:wmo:42049:1,2014-12-17T07:00:00Z,28.3507,-96.0058,2.0,0.009,11111222 
TABS,ioos:station:wmo:42049:1,2014-12-17T07:30:00Z,28.3507,-96.0058,2.0,0.0088,11111222 
TABS,ioos:station:wmo:42049:1,2014-12-17T08:00:00Z,28.3507,-96.0058,2.0,0.0088,11111222 
TABS,ioos:station:wmo:42049:1,2014-12-17T08:30:00Z,28.3507,-96.0058,2.0,0.0091,11111222 
TABS,ioos:station:wmo:42049:1,2014-12-17T09:00:00Z,28.3507,-96.0058,2.0,0.0089,11111222 
TABS,ioos:station:wmo:42049:1,2014-12-17T09:30:00Z,28.3507,-96.0058,2.0,30.9632,11111222 
TABS,ioos:station:wmo:42049:1,2014-12-17T10:00:00Z,28.3507,-96.0058,2.0,30.9357,11111222 
TABS,ioos:station:wmo:42049:1,2014-12-17T10:30:00Z,28.3507,-96.0058,2.0,30.9265,11111222 
TABS,ioos:station:wmo:42049:1,2014-12-17T11:00:00Z,28.3507,-96.0058,2.0,30.8984,11111222 
TABS,ioos:station:wmo:42049:1,2014-12-17T11:30:00Z,28.3507,-96.0058,2.0,30.8602,11111222 
TABS,ioos:station:wmo:42049:1,2014-12-17T12:00:00Z,28.3507,-96.0058,2.0,30.8144,11111222 
TABS,ioos:station:wmo:42049:1,2014-12-17T12:30:00Z,28.3507,-96.0058,2.0,30.7887,11111222 
TABS,ioos:station:wmo:42049:1,2014-12-17T13:00:00Z,28.3507,-96.0058,2.0,30.7548,11111222 
TABS,ioos:station:wmo:42049:1,2014-12-17T13:30:00Z,28.3507,-96.0058,2.0,30.8362,11111222 
TABS,ioos:station:wmo:42049:1,2014-12-17T14:00:00Z,28.3507,-96.0058,2.0,30.9373,11111222 
TABS,ioos:station:wmo:42049:1,2014-12-17T14:30:00Z,28.3507,-96.0058,2.0,30.9501,11111222 
TABS,ioos:station:wmo:42049:1,2014-12-17T15:00:00Z,28.3507,-96.0058,2.0,31.1074,11111222 
TABS,ioos:station:wmo:42049:1,2014-12-17T15:30:00Z,28.3507,-96.0058,2.0,31.2197,11111222 
TABS,ioos:station:wmo:42049:1,2014-12-17T16:00:00Z,28.3507,-96.0058,2.0,31.3586,11111222 
TABS,ioos:station:wmo:42049:1,2014-12-17T16:30:00Z,28.3507,-96.0058,2.0,31.5351,11111222 
TABS,ioos:station:wmo:42049:1,2014-12-17T17:00:00Z,28.3507,-96.0058,2.0,31.738,11111222 
TABS,ioos:station:wmo:42049:1,2014-12-17T17:30:00Z,28.3507,-96.0058,2.0,31.8096,11111222 
TABS,ioos:station:wmo:42049:1,2014-12-17T18:00:00Z,28.3507,-96.0058,2.0,31.8365,11111222 
TABS,ioos:station:wmo:42049:1,2014-12-17T18:30:00Z,28.3507,-96.0058,2.0,31.9341,11111222 
TABS,ioos:station:wmo:42049:1,2014-12-17T19:00:00Z,28.3507,-96.0058,2.0,31.9748,11111222 
TABS,ioos:station:wmo:42049:1,2014-12-17T19:30:00Z,28.3507,-96.0058,2.0,32.0314,11111222 
TABS,ioos:station:wmo:42049:1,2014-12-17T20:00:00Z,28.3507,-96.0058,2.0,32.1422,11111222 
TABS,ioos:station:wmo:42049:1,2014-12-17T20:30:00Z,28.3507,-96.0058,2.0,32.1856,11111222 
TABS,ioos:station:wmo:42049:1,2014-12-17T21:00:00Z,28.3507,-96.0058,2.0,31.6719,11111222 
TABS,ioos:station:wmo:42049:1,2014-12-17T21:30:00Z,28.3507,-96.0058,2.0,31.2812,11111222 
TABS,ioos:station:wmo:42049:1,2014-12-17T22:00:00Z,28.3507,-96.0058,2.0,31.1494,11111222 
TABS,ioos:station:wmo:42049:1,2014-12-17T22:30:00Z,28.3507,-96.0058,2.0,31.1309,11111222 
TABS,ioos:station:wmo:42049:1,2014-12-17T23:00:00Z,28.3507,-96.0058,2.0,31.1615,11111222 
TABS,ioos:station:wmo:42049:1,2014-12-17T23:30:00Z,28.3507,-96.0058,2.0,31.2051,11111222 
TABS,ioos:station:wmo:42049:1,2014-12-18T00:00:00Z,28.3507,-96.0058,2.0,31.2163,11111222 
TABS,ioos:station:wmo:42049:1,2014-12-18T00:30:00Z,28.3507,-96.0058,2.0,31.2349,11111222 
TABS,ioos:station:wmo:42049:1,2014-12-18T01:00:00Z,28.3507,-96.0058,2.0,31.2108,11111222 
TABS,ioos:station:wmo:42049:1,2014-12-18T01:30:00Z,28.3507,-96.0058,2.0,31.1828,11111222 
TABS,ioos:station:wmo:42049:1,2014-12-18T02:00:00Z,28.3507,-96.0058,2.0,31.1261,11111222 
TABS,ioos:station:wmo:42049:1,2014-12-18T02:30:00Z,28.3507,-96.0058,2.0,30.9728,11111222 
TABS,ioos:station:wmo:42049:1,2014-12-18T03:00:00Z,28.3507,-96.0058,2.0,30.8169,11111222 
TABS,ioos:station:wmo:42049:1,2014-12-18T03:30:00Z,28.3507,-96.0058,2.0,30.7434,11111222 
TABS,ioos:station:wmo:42049:1,2014-12-18T04:00:00Z,28.3507,-96.0058,2.0,30.6581,11111222 
TABS,ioos:station:wmo:42049:1,2014-12-18T04:30:00Z,28.3507,-96.0058,2.0,30.9466,11111222 
TABS,ioos:station:wmo:42049:1,2014-12-18T05:00:00Z,28.3507,-96.0058,2.0,31.055,11111222 
TABS,ioos:station:wmo:42049:1,2014-12-18T05:30:00Z,28.3507,-96.0058,2.0,31.3059,11111222 
TABS,ioos:station:wmo:42049:1,2014-12-18T06:00:00Z,28.3507,-96.0058,2.0,31.4121,11111222 
TABS,ioos:station:wmo:42049:1,2014-12-18T06:30:00Z,28.3507,-96.0058,2.0,31.5585,11111222 
TABS,ioos:station:wmo:42049:1,2014-12-18T07:00:00Z,28.3507,-96.0058,2.0,31.4929,11111222 
TABS,ioos:station:wmo:42049:1,2014-12-18T07:30:00Z,28.3507,-96.0058,2.0,30.8156,11111222 
TABS,ioos:station:wmo:42049:1,2014-12-18T08:00:00Z,28.3507,-96.0058,2.0,30.3459,11111222 
TABS,ioos:station:wmo:42049:1,2014-12-18T08:30:00Z,28.3507,-96.0058,2.0,30.3588,11111222 
TABS,ioos:station:wmo:42049:1,2014-12-18T09:00:00Z,28.3507,-96.0058,2.0,30.3378,11111222 
TABS,ioos:station:wmo:42049:1,2014-12-18T09:30:00Z,28.3507,-96.0058,2.0,30.373,11111222 
TABS,ioos:station:wmo:42049:1,2014-12-18T10:00:00Z,28.3507,-96.0058,2.0,30.6512,11111222 
TABS,ioos:station:wmo:42049:1,2014-12-18T10:30:00Z,28.3507,-96.0058,2.0,30.682,11111222 
TABS,ioos:station:wmo:42049:1,2014-12-18T11:00:00Z,28.3507,-96.0058,2.0,30.2379,11111222 
TABS,ioos:station:wmo:42049:1,2014-12-18T11:30:00Z,28.3507,-96.0058,2.0,30.1867,11111222 
TABS,ioos:station:wmo:42049:1,2014-12-18T12:00:00Z,28.3507,-96.0058,2.0,30.2994,11111222 
TABS,ioos:station:wmo:42049:1,2014-12-18T12:30:00Z,28.3507,-96.0058,2.0,30.5041,11111222 
TABS,ioos:station:wmo:42049:1,2014-12-18T13:00:00Z,28.3507,-96.0058,2.0,30.6113,11111222 
TABS,ioos:station:wmo:42049:1,2014-12-18T13:30:00Z,28.3507,-96.0058,2.0,30.7338,11111222 
TABS,ioos:station:wmo:42049:1,2014-12-18T14:00:00Z,28.3507,-96.0058,2.0,30.8075,11111222 
TABS,ioos:station:wmo:42049:1,2014-12-18T14:30:00Z,28.3507,-96.0058,2.0,30.8421,11111222 
TABS,ioos:station:wmo:42049:1,2014-12-18T15:00:00Z,28.3507,-96.0058,2.0,30.8823,11111222 
TABS,ioos:station:wmo:42049:1,2014-12-18T15:30:00Z,28.3507,-96.0058,2.0,30.9153,11111222 
TABS,ioos:station:wmo:42049:1,2014-12-18T16:00:00Z,28.3507,-96.0058,2.0,31.0131,11111222 
TABS,ioos:station:wmo:42049:1,2014-12-18T16:30:00Z,28.3507,-96.0058,2.0,31.0769,11111222 
TABS,ioos:station:wmo:42049:1,2014-12-18T17:00:00Z,28.3507,-96.0058,2.0,31.1434,11111222 
TABS,ioos:station:wmo:42049:1,2014-12-18T17:30:00Z,28.3507,-96.0058,2.0,31.0966,11111222 
TABS,ioos:station:wmo:42049:1,2014-12-18T18:00:00Z,28.3507,-96.0058,2.0,30.9326,11111222 
TABS,ioos:station:wmo:42049:1,2014-12-18T18:30:00Z,28.3507,-96.0058,2.0,31.1618,11111222 
TABS,ioos:station:wmo:42049:1,2014-12-18T19:00:00Z,28.3507,-96.0058,2.0,31.102,11111222 
TABS,ioos:station:wmo:42049:1,2014-12-18T19:30:00Z,28.3507,-96.0058,2.0,31.2445,11111222 
TABS,ioos:station:wmo:42049:1,2014-12-18T20:00:00Z,28.3507,-96.0058,2.0,31.6376,11111222 
TABS,ioos:station:wmo:42049:1,2014-12-18T20:30:00Z,28.3507,-96.0058,2.0,31.2861,11111222 
TABS,ioos:station:wmo:42049:1,2014-12-18T21:00:00Z,28.3507,-96.0058,2.0,31.9115,11111222 
TABS,ioos:station:wmo:42049:1,2014-12-18T21:30:00Z,28.3507,-96.0058,2.0,32.0541,11111222 
TABS,ioos:station:wmo:42049:1,2014-12-18T22:00:00Z,28.3507,-96.0058,2.0,32.1973,11111222 
TABS,ioos:station:wmo:42049:1,2014-12-18T22:30:00Z,28.3507,-96.0058,2.0,32.2359,11111222 
TABS,ioos:station:wmo:42049:1,2014-12-18T23:00:00Z,28.3507,-96.0058,2.0,32.0925,11111222 
TABS,ioos:station:wmo:42049:1,2014-12-18T23:30:00Z,28.3507,-96.0058,2.0,31.8743,11111222 
TABS,ioos:station:wmo:42049:1,2014-12-19T00:00:00Z,28.3507,-96.0058,2.0,31.9994,11111222 
TABS,ioos:station:wmo:42049:1,2014-12-19T00:30:00Z,28.3507,-96.0058,2.0,32.2755,11111222 
TABS,ioos:station:wmo:42049:1,2014-12-19T01:00:00Z,28.3507,-96.0058,2.0,32.3603,11111222 
TABS,ioos:station:wmo:42049:1,2014-12-19T01:30:00Z,28.3507,-96.0058,2.0,32.4327,11111222 
TABS,ioos:station:wmo:42049:1,2014-12-19T02:00:00Z,28.3507,-96.0058,2.0,32.4428,11111222 
TABS,ioos:station:wmo:42049:1,2014-12-19T02:30:00Z,28.3507,-96.0058,2.0,32.4675,11111222 
TABS,ioos:station:wmo:42049:1,2014-12-19T03:00:00Z,28.3507,-96.0058,2.0,32.4611,11111222 
TABS,ioos:station:wmo:42049:1,2014-12-19T03:30:00Z,28.3507,-96.0058,2.0,32.442,11111222 
TABS,ioos:station:wmo:42049:1,2014-12-19T04:00:00Z,28.3507,-96.0058,2.0,32.2494,11111222 
TABS,ioos:station:wmo:42049:1,2014-12-19T04:30:00Z,28.3507,-96.0058,2.0,31.9463,11111222 
TABS,ioos:station:wmo:42049:1,2014-12-19T05:00:00Z,28.3507,-96.0058,2.0,31.9528,11111222 
TABS,ioos:station:wmo:42049:1,2014-12-19T05:30:00Z,28.3507,-96.0058,2.0,31.8995,11111222 
TABS,ioos:station:wmo:42049:1,2014-12-19T06:00:00Z,28.3507,-96.0058,2.0,32.064,11111222 
TABS,ioos:station:wmo:42049:1,2014-12-19T06:30:00Z,28.3507,-96.0058,2.0,32.0885,11111222 
TABS,ioos:station:wmo:42049:1,2014-12-19T07:00:00Z,28.3507,-96.0058,2.0,32.1645,11111222 
TABS,ioos:station:wmo:42049:1,2014-12-19T07:30:00Z,28.3507,-96.0058,2.0,32.1257,11111222 
TABS,ioos:station:wmo:42049:1,2014-12-19T08:00:00Z,28.3507,-96.0058,2.0,32.0679,11111222 
TABS,ioos:station:wmo:42049:1,2014-12-19T08:30:00Z,28.3507,-96.0058,2.0,32.1556,11111222 
TABS,ioos:station:wmo:42049:1,2014-12-19T09:00:00Z,28.3507,-96.0058,2.0,32.196,11111222 
TABS,ioos:station:wmo:42049:1,2014-12-19T09:30:00Z,28.3507,-96.0058,2.0,32.1773,11111222 
TABS,ioos:station:wmo:42049:1,2014-12-19T10:00:00Z,28.3507,-96.0058,2.0,32.2447,11111222 
TABS,ioos:station:wmo:42049:1,2014-12-19T10:30:00Z,28.3507,-96.0058,2.0,32.2495,11111222 
TABS,ioos:station:wmo:42049:1,2014-12-19T11:00:00Z,28.3507,-96.0058,2.0,32.3489,11111222 
TABS,ioos:station:wmo:42049:1,2014-12-19T11:30:00Z,28.3507,-96.0058,2.0,32.3636,11111222 
TABS,ioos:station:wmo:42049:1,2014-12-19T12:00:00Z,28.3507,-96.0058,2.0,32.4864,11111222 
TABS,ioos:station:wmo:42049:1,2014-12-19T12:30:00Z,28.3507,-96.0058,2.0,32.5884,11111222 
TABS,ioos:station:wmo:42049:1,2014-12-19T13:00:00Z,28.3507,-96.0058,2.0,32.6867,11111222 
TABS,ioos:station:wmo:42049:1,2014-12-19T13:30:00Z,28.3507,-96.0058,2.0,32.638,11111222 
TABS,ioos:station:wmo:42049:1,2014-12-19T14:00:00Z,28.3507,-96.0058,2.0,32.504,11111222 
TABS,ioos:station:wmo:42049:1,2014-12-19T14:30:00Z,28.3507,-96.0058,2.0,32.3467,11111222 
TABS,ioos:station:wmo:42049:1,2014-12-19T15:00:00Z,28.3507,-96.0058,2.0,32.4229,11111222 
TABS,ioos:station:wmo:42049:1,2014-12-19T15:30:00Z,28.3507,-96.0058,2.0,32.3248,11111222 
TABS,ioos:station:wmo:42049:1,2014-12-19T16:00:00Z,28.3507,-96.0058,2.0,32.2413,11111222 
TABS,ioos:station:wmo:42049:1,2014-12-19T16:30:00Z,28.3507,-96.0058,2.0,32.1896,11111222 
TABS,ioos:station:wmo:42049:1,2014-12-19T17:00:00Z,28.3507,-96.0058,2.0,32.1606,11111222 
TABS,ioos:station:wmo:42049:1,2014-12-19T17:30:00Z,28.3507,-96.0058,2.0,32.0728,11111222 
TABS,ioos:station:wmo:42049:1,2014-12-19T18:00:00Z,28.3507,-96.0058,2.0,32.0002,11111222 
TABS,ioos:station:wmo:42049:1,2014-12-19T18:30:00Z,28.3507,-96.0058,2.0,32.0911,11111222 
TABS,ioos:station:wmo:42049:1,2014-12-19T19:00:00Z,28.3507,-96.0058,2.0,31.9529,11111222 
TABS,ioos:station:wmo:42049:1,2014-12-19T19:30:00Z,28.3507,-96.0058,2.0,31.9059,11111222 
TABS,ioos:station:wmo:42049:1,2014-12-19T20:00:00Z,28.3507,-96.0058,2.0,31.7613,11111222 
TABS,ioos:station:wmo:42049:1,2014-12-19T20:30:00Z,28.3507,-96.0058,2.0,31.6899,11111222 
TABS,ioos:station:wmo:42049:1,2014-12-19T21:00:00Z,28.3507,-96.0058,2.0,31.6901,11111222 
TABS,ioos:station:wmo:42049:1,2014-12-19T21:30:00Z,28.3507,-96.0058,2.0,31.7425,11111222 
TABS,ioos:station:wmo:42049:1,2014-12-19T22:00:00Z,28.3507,-96.0058,2.0,31.8341,11111222 
TABS,ioos:station:wmo:42049:1,2014-12-19T22:30:00Z,28.3507,-96.0058,2.0,31.8961,11111222 
TABS,ioos:station:wmo:42049:1,2014-12-19T23:00:00Z,28.3507,-96.0058,2.0,32.0033,11111222 
TABS,ioos:station:wmo:42049:1,2014-12-19T23:30:00Z,28.3507,-96.0058,2.0,32.1451,11111222 
TABS,ioos:station:wmo:42049:1,2014-12-20T00:00:00Z,28.3507,-96.0058,2.0,32.1474,11111222 
TABS,ioos:station:wmo:42049:1,2014-12-20T00:30:00Z,28.3507,-96.0058,2.0,32.1471,11111222 
TABS,ioos:station:wmo:42049:1,2014-12-20T01:00:00Z,28.3507,-96.0058,2.0,32.2265,11111222 
TABS,ioos:station:wmo:42049:1,2014-12-20T01:30:00Z,28.3507,-96.0058,2.0,32.3309,11111222 
TABS,ioos:station:wmo:42049:1,2014-12-20T02:00:00Z,28.3507,-96.0058,2.0,32.4625,11111222 
TABS,ioos:station:wmo:42049:1,2014-12-20T02:30:00Z,28.3507,-96.0058,2.0,32.563,11111222 
TABS,ioos:station:wmo:42049:1,2014-12-20T03:00:00Z,28.3507,-96.0058,2.0,32.8014,11111222 
TABS,ioos:station:wmo:42049:1,2014-12-20T03:30:00Z,28.3507,-96.0058,2.0,32.9757,11111222 
TABS,ioos:station:wmo:42049:1,2014-12-20T04:00:00Z,28.3507,-96.0058,2.0,33.0294,11111222 
TABS,ioos:station:wmo:42049:1,2014-12-20T04:30:00Z,28.3507,-96.0058,2.0,33.0914,11111222 
TABS,ioos:station:wmo:42049:1,2014-12-20T05:00:00Z,28.3507,-96.0058,2.0,33.2736,11111222 
TABS,ioos:station:wmo:42049:1,2014-12-20T05:30:00Z,28.3507,-96.0058,2.0,33.2295,11111222 
TABS,ioos:station:wmo:42049:1,2014-12-20T06:00:00Z,28.3507,-96.0058,2.0,33.3635,11111222 
TABS,ioos:station:wmo:42049:1,2014-12-20T06:30:00Z,28.3507,-96.0058,2.0,33.3952,11111222 
TABS,ioos:station:wmo:42049:1,2014-12-20T07:00:00Z,28.3507,-96.0058,2.0,33.5629,11111222 
TABS,ioos:station:wmo:42049:1,2014-12-20T07:30:00Z,28.3507,-96.0058,2.0,33.5308,11111222 
TABS,ioos:station:wmo:42049:1,2014-12-20T08:00:00Z,28.3507,-96.0058,2.0,33.5512,11111222 
TABS,ioos:station:wmo:42049:1,2014-12-20T08:30:00Z,28.3507,-96.0058,2.0,33.5285,11111222 
TABS,ioos:station:wmo:42049:1,2014-12-20T09:00:00Z,28.3507,-96.0058,2.0,33.442,11111222 
TABS,ioos:station:wmo:42049:1,2014-12-20T09:30:00Z,28.3507,-96.0058,2.0,33.5642,11111222 
TABS,ioos:station:wmo:42049:1,2014-12-20T10:00:00Z,28.3507,-96.0058,2.0,33.5184,11111222 
TABS,ioos:station:wmo:42049:1,2014-12-20T10:30:00Z,28.3507,-96.0058,2.0,33.5558,11111222 
TABS,ioos:station:wmo:42049:1,2014-12-20T11:00:00Z,28.3507,-96.0058,2.0,33.4511,11111222 
TABS,ioos:station:wmo:42049:1,2014-12-20T11:30:00Z,28.3507,-96.0058,2.0,33.4713,11111222 
TABS,ioos:station:wmo:42049:1,2014-12-20T12:00:00Z,28.3507,-96.0058,2.0,33.4247,11111222 
TABS,ioos:station:wmo:42049:1,2014-12-20T12:30:00Z,28.3507,-96.0058,2.0,33.4435,11111222 
TABS,ioos:station:wmo:42049:1,2014-12-20T13:00:00Z,28.3507,-96.0058,2.0,33.4249,11111222 
TABS,ioos:station:wmo:42049:1,2014-12-20T13:30:00Z,28.3507,-96.0058,2.0,33.4362,11111222 
TABS,ioos:station:wmo:42049:1,2014-12-20T14:00:00Z,28.3507,-96.0058,2.0,33.4624,11111222 
TABS,ioos:station:wmo:42049:1,2014-12-20T14:30:00Z,28.3507,-96.0058,2.0,33.439,11111222 
TABS,ioos:station:wmo:42049:1,2014-12-20T15:00:00Z,28.3507,-96.0058,2.0,33.4267,11111222 
TABS,ioos:station:wmo:42049:1,2014-12-20T15:30:00Z,28.3507,-96.0058,2.0,33.3264,11111222 
TABS,ioos:station:wmo:42049:1,2014-12-20T16:00:00Z,28.3507,-96.0058,2.0,33.3991,11111222 
TABS,ioos:station:wmo:42049:1,2014-12-20T16:30:00Z,28.3507,-96.0058,2.0,33.4056,11111222 
TABS,ioos:station:wmo:42049:1,2014-12-20T17:00:00Z,28.3507,-96.0058,2.0,33.3463,11111222 
TABS,ioos:station:wmo:42049:1,2014-12-20T17:30:00Z,28.3507,-96.0058,2.0,33.3791,11111222 
TABS,ioos:station:wmo:42049:1,2014-12-20T18:00:00Z,28.3507,-96.0058,2.0,33.3623,11111222 
TABS,ioos:station:wmo:42049:1,2014-12-20T18:30:00Z,28.3507,-96.0058,2.0,33.2579,11111222 
TABS,ioos:station:wmo:42049:1,2014-12-20T19:00:00Z,28.3507,-96.0058,2.0,33.2649,11111222 
TABS,ioos:station:wmo:42049:1,2014-12-20T19:30:00Z,28.3507,-96.0058,2.0,33.2707,11111222 
TABS,ioos:station:wmo:42049:1,2014-12-20T20:00:00Z,28.3507,-96.0058,2.0,33.2399,11111222 
TABS,ioos:station:wmo:42049:1,2014-12-20T20:30:00Z,28.3507,-96.0058,2.0,33.2466,11111222 
TABS,ioos:station:wmo:42049:1,2014-12-20T21:00:00Z,28.3507,-96.0058,2.0,33.2719,11111222 
TABS,ioos:station:wmo:42049:1,2014-12-20T21:30:00Z,28.3507,-96.0058,2.0,33.1126,11111222 
TABS,ioos:station:wmo:42049:1,2014-12-20T22:00:00Z,28.3507,-96.0058,2.0,33.1255,11111222 
TABS,ioos:station:wmo:42049:1,2014-12-20T22:30:00Z,28.3507,-96.0058,2.0,33.1369,11111222 
TABS,ioos:station:wmo:42049:1,2014-12-20T23:00:00Z,28.3507,-96.0058,2.0,33.1476,11111222 
TABS,ioos:station:wmo:42049:1,2014-12-20T23:30:00Z,28.3507,-96.0058,2.0,33.1178,11111222 
TABS,ioos:station:wmo:42049:1,2014-12-21T00:00:00Z,28.3507,-96.0058,2.0,33.0822,11111222 
TABS,ioos:station:wmo:42049:1,2014-12-21T00:30:00Z,28.3507,-96.0058,2.0,33.1002,11111222 
TABS,ioos:station:wmo:42049:1,2014-12-21T01:00:00Z,28.3507,-96.0058,2.0,33.0884,11111222 
TABS,ioos:station:wmo:42049:1,2014-12-21T01:30:00Z,28.3507,-96.0058,2.0,33.0726,11111222 
TABS,ioos:station:wmo:42049:1,2014-12-21T02:00:00Z,28.3507,-96.0058,2.0,33.0372,11111222 
TABS,ioos:station:wmo:42049:1,2014-12-21T02:30:00Z,28.3507,-96.0058,2.0,33.0109,11111222 
TABS,ioos:station:wmo:42049:1,2014-12-21T03:00:00Z,28.3507,-96.0058,2.0,32.9906,11111222 
TABS,ioos:station:wmo:42049:1,2014-12-21T03:30:00Z,28.3507,-96.0058,2.0,32.9692,11111222 
TABS,ioos:station:wmo:42049:1,2014-12-21T04:00:00Z,28.3507,-96.0058,2.0,32.8605,11111222 
TABS,ioos:station:wmo:42049:1,2014-12-21T04:30:00Z,28.3507,-96.0058,2.0,32.8597,11111222 
TABS,ioos:station:wmo:42049:1,2014-12-21T05:00:00Z,28.3507,-96.0058,2.0,32.9196,11111222 
TABS,ioos:station:wmo:42049:1,2014-12-21T05:30:00Z,28.3507,-96.0058,2.0,32.9455,11111222 
TABS,ioos:station:wmo:42049:1,2014-12-21T06:00:00Z,28.3507,-96.0058,2.0,32.887,11111222 
TABS,ioos:station:wmo:42049:1,2014-12-21T06:30:00Z,28.3507,-96.0058,2.0,32.9179,11111222 
TABS,ioos:station:wmo:42049:1,2014-12-21T07:00:00Z,28.3507,-96.0058,2.0,32.8174,11111222 
TABS,ioos:station:wmo:42049:1,2014-12-21T07:30:00Z,28.3507,-96.0058,2.0,32.8244,11111222 
TABS,ioos:station:wmo:42049:1,2014-12-21T08:00:00Z,28.3507,-96.0058,2.0,32.5508,11111222 
TABS,ioos:station:wmo:42049:1,2014-12-21T08:30:00Z,28.3507,-96.0058,2.0,32.5157,11111222 
TABS,ioos:station:wmo:42049:1,2014-12-21T09:00:00Z,28.3507,-96.0058,2.0,32.5574,11111222 
TABS,ioos:station:wmo:42049:1,2014-12-21T09:30:00Z,28.3507,-96.0058,2.0,32.5131,11111222 
TABS,ioos:station:wmo:42049:1,2014-12-21T10:00:00Z,28.3507,-96.0058,2.0,32.5469,11111222 
TABS,ioos:station:wmo:42049:1,2014-12-21T10:30:00Z,28.3507,-96.0058,2.0,32.511,11111222 
TABS,ioos:station:wmo:42049:1,2014-12-21T11:00:00Z,28.3507,-96.0058,2.0,32.4453,11111222 
TABS,ioos:station:wmo:42049:1,2014-12-21T11:30:00Z,28.3507,-96.0058,2.0,32.3854,11111222 
TABS,ioos:station:wmo:42049:1,2014-12-21T12:00:00Z,28.3507,-96.0058,2.0,32.3379,11111222 
TABS,ioos:station:wmo:42049:1,2014-12-21T12:30:00Z,28.3507,-96.0058,2.0,32.2865,11111222 
TABS,ioos:station:wmo:42049:1,2014-12-21T13:00:00Z,28.3507,-96.0058,2.0,32.2613,11111222 
TABS,ioos:station:wmo:42049:1,2014-12-21T13:30:00Z,28.3507,-96.0058,2.0,32.2689,11111222 
TABS,ioos:station:wmo:42049:1,2014-12-21T14:00:00Z,28.3507,-96.0058,2.0,32.2199,11111222 
TABS,ioos:station:wmo:42049:1,2014-12-21T14:30:00Z,28.3507,-96.0058,2.0,32.2203,11111222 
TABS,ioos:station:wmo:42049:1,2014-12-21T15:00:00Z,28.3507,-96.0058,2.0,32.1641,11111222 
TABS,ioos:station:wmo:42049:1,2014-12-21T15:30:00Z,28.3507,-96.0058,2.0,32.1416,11111222 
TABS,ioos:station:wmo:42049:1,2014-12-21T16:00:00Z,28.3507,-96.0058,2.0,32.125,11111222 
TABS,ioos:station:wmo:42049:1,2014-12-21T16:30:00Z,28.3507,-96.0058,2.0,32.1238,11111222 
TABS,ioos:station:wmo:42049:1,2014-12-21T17:00:00Z,28.3507,-96.0058,2.0,32.1369,11111222 
TABS,ioos:station:wmo:42049:1,2014-12-21T17:30:00Z,28.3507,-96.0058,2.0,32.1682,11111222 
TABS,ioos:station:wmo:42049:1,2014-12-21T18:00:00Z,28.3507,-96.0058,2.0,32.2117,11111222 
TABS,ioos:station:wmo:42049:1,2014-12-21T18:30:00Z,28.3507,-96.0058,2.0,32.2655,11111222 
TABS,ioos:station:wmo:42049:1,2014-12-21T19:00:00Z,28.3507,-96.0058,2.0,32.296,11111222 
TABS,ioos:station:wmo:42049:1,2014-12-21T19:30:00Z,28.3507,-96.0058,2.0,32.3177,11111222 
TABS,ioos:station:wmo:42049:1,2014-12-21T20:00:00Z,28.3507,-96.0058,2.0,32.3488,11111222 
TABS,ioos:station:wmo:42049:1,2014-12-21T20:30:00Z,28.3507,-96.0058,2.0,32.329,11111222 
TABS,ioos:station:wmo:42049:1,2014-12-21T21:00:00Z,28.3507,-96.0058,2.0,32.3462,11111222 
TABS,ioos:station:wmo:42049:1,2014-12-21T21:30:00Z,28.3507,-96.0058,2.0,32.3649,11111222 
TABS,ioos:station:wmo:42049:1,2014-12-21T22:00:00Z,28.3507,-96.0058,2.0,32.3763,11111222 